This demonstration page uses our WeatherBlox Daily Observations layout. Learn more.

38.89511, -77.03637

Hourly Observations for April 9, 2015

Temp ( °F °C ) Dew Point ( °F °C ) Humidity (%) Winds ( mph kmh ) Pressure ( in mb ) Visibility ( mi km ) Precip ( " mm )
12:27 am 00:27 Cloudy 46 8 41 5 82 82 ENE 10 17 30.21 1023 9 14.484096 0.001 0.001
12:52 am 00:52 Cloudy 45 7 41 5 87 87 ENE 9 15 30.21 1023 9 14.484096 0.001 0.001
1:52 am 01:52 Cloudy 45 7 41 5 87 87 ENE 12 19 30.21 1023 10 16.09344 0 0
2:20 am 02:20 Cloudy 45 7 41 5 87 87 ENE 9 15 30.21 1023 10 16.09344 0 0
2:52 am 02:52 Cloudy 45 7 41 5 87 87 Calm 30.24 1024 10 16.09344 0 0
3:52 am 03:52 Cloudy 45 7 41 5 87 87 ENE 8 13 30.18 1022 9 14.484096 0 0
4:00 am 04:00 Cloudy with Light Rain 45 7 41 5 87 87 ENE 8 13 30.18 1022 6 9.656064 0 0
4:52 am 04:52 Cloudy with Light Rain 45 7 41 5 87 87 NNE 7 11 30.21 1023 7 11.265408 0.03 0.762
5:23 am 05:23 Cloudy with Light Rain 45 7 41 5 87 87 NE 10 17 30.18 1022 10 16.09344 0.001 0.001
5:52 am 05:52 Cloudy 45 7 41 5 87 87 ENE 9 15 30.18 1022 10 16.09344 0.001 0.001
5:59 am 05:59 Cloudy 45 7 41 5 87 87 ENE 8 13 30.18 1022 9 14.484096 0 0
6:52 am 06:52 Cloudy 45 7 41 5 87 87 NE 7 11 30.21 1023 10 16.09344 0 0
7:52 am 07:52 Cloudy with Mist and Fog 45 7 41 5 87 87 NE 9 15 30.21 1023 4 6.437376 0 0
8:52 am 08:52 Cloudy with Mist and Fog 45 7 41 5 87 87 ENE 5 7 30.24 1024 4 6.437376 0 0
9:52 am 09:52 Cloudy with Mist and Fog 46 8 41 5 82 82 ENE 7 11 30.27 1025 5 8.04672 0 0
10:52 am 10:52 Cloudy with Mist and Fog 46 8 43 6 87 87 ENE 9 15 30.27 1025 6 9.656064 0 0
11:13 am 11:13 Cloudy 46 8 41 5 82 82 ENE 8 13 30.27 1025 7 11.265408 0 0
11:52 am 11:52 Cloudy 48 9 41 5 76 76 ESE 8 13 30.27 1025 8 12.874752 0 0
12:52 pm 12:52 Cloudy 48 9 43 6 82 82 E 8 13 30.27 1025 10 16.09344 0 0
1:32 pm 13:32 Cloudy 50 10 43 6 76 76 SE 9 15 30.27 1025 10 16.09344 0 0
1:52 pm 13:52 Cloudy 50 10 43 6 76 76 ESE 8 13 30.27 1025 10 16.09344 0 0
2:52 pm 14:52 Cloudy 50 10 43 6 76 76 E 8 13 30.24 1024 10 16.09344 0 0
3:38 pm 15:38 Cloudy 50 10 43 6 76 76 ESE 10 17 30.21 1023 10 16.09344 0 0
3:52 pm 15:52 Cloudy 50 10 43 6 76 76 E 13 20 30.21 1023 10 16.09344 0 0
4:52 pm 16:52 Cloudy 50 10 43 6 76 76 SE 10 17 30.21 1023 10 16.09344 0 0
5:17 pm 17:17 Cloudy 48 9 43 6 82 82 ESE 10 17 30.21 1023 7 11.265408 0 0
5:52 pm 17:52 Cloudy with Haze 48 9 43 6 82 82 ESE 9 15 30.21 1023 5 8.04672 0 0
6:33 pm 18:33 Cloudy 48 9 43 6 82 82 ESE 10 17 30.21 1023 8 12.874752 0 0
6:52 pm 18:52 Cloudy 48 9 43 6 82 82 SE 13 20 30.21 1023 10 16.09344 0 0
7:14 pm 19:14 Cloudy with Haze 48 9 43 6 82 82 SE 12 19 30.21 1023 6 9.656064 0 0
7:52 pm 19:52 Cloudy with Haze 48 9 43 6 82 82 ESE 9 15 30.21 1023 6 9.656064 0 0
7:55 pm 19:55 Cloudy with Haze 48 9 43 6 82 82 ESE 10 17 30.21 1023 4 6.437376 0 0
8:52 pm 20:52 Cloudy with Light Drizzle 46 8 43 6 87 87 ESE 7 11 30.24 1024 4 6.437376 0.001 0.001
9:34 pm 21:34 Cloudy with Light Drizzle 46 8 43 6 87 87 E 6 9 30.24 1024 4 6.437376 0 0
9:52 pm 21:52 Cloudy with Light Drizzle 46 8 43 6 87 87 ESE 8 13 30.24 1024 5 8.04672 0.001 0.001
10:21 pm 22:21 Cloudy with Light Drizzle 46 8 43 6 87 87 SE 7 11 30.24 1024 4 6.437376 0.001 0.001
10:52 pm 22:52 Cloudy with Light Drizzle 46 8 43 6 87 87 E 7 11 30.21 1023 4 6.437376 0.001 0.001
11:01 pm 23:01 Cloudy with Light Drizzle 46 8 43 6 87 87 ENE 5 7 30.21 1023 5 8.04672 0.001 0.001
11:26 pm 23:26 Cloudy with Light Drizzle 46 8 43 6 87 87 ENE 8 13 30.21 1023 3 4.828032 0.001 0.001
11:52 pm 23:52 Cloudy with Light Drizzle 46 8 43 6 87 87 ESE 10 17 30.18 1022 5 8.04672 0.01 0.254

Powered by AerisWeather